Location: LDNL
(36.4545°S, 141.6685°E)
Time: 22:56:32
(UTC+11:00)

ISS - Pass Details

Date: 17 December 2021
Orbit: 413 x 422 km, 51.6° (Epoch: 22 January)

Event Time Altitude Azimuth Distance (km) Brightness Sun altitude
Rises 04:51:43 0° 240° (WSW) 2,377 -0.1 -13.5°
Reaches altitude 10° 04:54:02 10° 253° (WSW) 1,507 -1.2 -13.1°
Maximum altitude 04:56:55 26° 311° (NW) 866 -2.8 -12.7°
Drops below altitude 10° 04:59:46 10° 10° (N) 1,493 -1.3 -12.3°
Sets 05:02:03 0° 23° (NNE) 2,350 -0.1 -11.9°
